Location: Coffee Creek Observatory
(38.8077°N, 94.7179°W)
Time: 01:54:45
(UTC-05:00)

Amateur Radio Satellites - All Passes

Search period start: 25 June 2016 01:24
Search period end: 26 June 2016 01:24
Location: Coffee Creek Observatory, 38.8077°N, 94.7179°W

Satellite Date Start Highest point End Downlink Frequencies (MHz)
Time Altitude Azimuth
VELOX 1 25 Jun 01:25:36 01:28:25 17° 267° (W) 01:31:14 145.980
AO-85 25 Jun 01:28:35 01:29:18 10° 324° (NW) 01:30:01 145.980
CUBEBUG 1 25 Jun 01:29:24 01:31:40 14° 268° (W) 01:33:55 437.445
ITUPSAT 1 25 Jun 01:29:46 01:31:42 12° 61° (ENE) 01:33:39 437.325
BEESAT 25 Jun 01:31:18 01:33:28 13° 62° (ENE) 01:35:39 436.000
Cosmos 2504 25 Jun 01:35:50 01:44:08 41° 74° (ENE) 01:52:09 435.465 / 435.565
YUBILEINY 25 Jun 01:39:18 01:48:03 68° 267° (W) 01:56:46 435.215
NANOSAT C BR1 25 Jun 01:51:30 01:54:49 23° 292° (WNW) 01:58:08 145.865
BUGSAT 1 25 Jun 01:51:41 01:55:38 49° 286° (WNW) 01:59:36 437.445
QB50P1 25 Jun 01:52:05 01:55:18 21° 292° (WNW) 01:58:32 145.935-145.965
POPSAT HIP 1 25 Jun 01:54:57 01:58:06 20° 292° (WNW) 02:01:14 437.405
QB50P2 25 Jun 02:06:51 02:09:13 15° 295° (WNW) 02:11:34 145.880/145.840
POLYITAN 1 25 Jun 02:09:30 02:11:48 14° 295° (WNW) 02:14:07 437.675
DUCHIFAT 1 25 Jun 02:15:07 02:17:18 14° 295° (WNW) 02:19:30 145.980
PCSat 25 Jun 02:31:08 02:34:57 20° 106° (ESE) 02:38:48 145.827
TISAT 1 25 Jun 02:38:00 02:41:12 21° 265° (W) 02:44:25 437.305
Gurwin Techsat 1B 25 Jun 02:38:29 02:42:58 27° 95° (E) 02:47:24 435.225
SWISSCUBE 25 Jun 02:40:05 02:44:50 73° 75° (ENE) 02:49:38 437.505
SO-50 25 Jun 02:45:17 02:49:55 69° 241° (WSW) 02:54:23 436.795
Cosmos 2491 25 Jun 02:45:36 02:54:00 49° 284° (WNW) 03:02:27 435.465 / 435.565
Oscar 19 25 Jun 02:54:25 02:59:34 90° 322° (NW) 03:04:41 437.125/150
JAS-2 25 Jun 02:55:08 03:00:27 38° 292° (WNW) 03:05:18 435.910
ITUPSAT 1 25 Jun 03:04:07 03:08:54 72° 258° (WSW) 03:13:43 437.325
BEESAT 25 Jun 03:05:54 03:10:39 68° 258° (WSW) 03:15:26 436.000
ITAMSAT 1 25 Jun 03:09:02 03:12:32 18° 93° (E) 03:16:01 435.822/435.867
O/OREOS (USA 219) 25 Jun 03:16:08 03:19:35 22° 102° (ESE) 03:23:03 437.305
KKS-1 25 Jun 03:25:37 03:29:01 22° 67° (ENE) 03:32:26 437.445
Cosmos 2504 25 Jun 03:29:17 03:37:29 43° 273° (W) 03:45:26 435.465 / 435.565
YUBILEINY 25 Jun 03:41:20 03:43:03 11° 286° (WNW) 03:44:46 435.215
BEESAT 3 25 Jun 03:47:28 03:51:11 43° 116° (ESE) 03:54:57 437.485
AO-7 25 Jun 03:55:15 04:01:50 25° 95° (E) 04:08:21 29.400- 29.500
STARS 25 Jun 04:08:28 04:12:18 31° 70° (ENE) 04:16:10 437.465
PCSat 25 Jun 04:12:38 04:17:54 53° 302° (WNW) 04:23:14 145.827
BEESAT 2 25 Jun 04:17:02 04:20:52 51° 116° (ESE) 04:24:44 435.950
Gurwin Techsat 1B 25 Jun 04:18:06 04:22:56 36° 291° (WNW) 04:27:44 435.225
MOZHAYETS 4 25 Jun 04:21:24 04:26:00 77° 76° (ENE) 04:30:38
SWISSCUBE 25 Jun 04:22:06 04:23:07 11° 270° (W) 04:24:07 437.505
Oscar 19 25 Jun 04:36:51 04:38:05 11° 301° (WNW) 04:39:20 437.125/150
ITAMSAT 1 25 Jun 04:47:12 04:52:16 52° 289° (WNW) 04:57:19 435.822/435.867
O/OREOS (USA 219) 25 Jun 04:54:44 04:58:46 32° 297° (WNW) 05:02:49 437.305
KKS-1 25 Jun 05:01:27 05:05:23 32° 263° (W) 05:09:22 437.445
AIST 1 25 Jun 05:05:29 05:09:37 49° 80° (E) 05:13:43
BEESAT 3 25 Jun 05:26:28 05:29:05 17° 313° (NW) 05:31:43 437.485
CUBESAT XI-V 25 Jun 05:38:00 05:42:36 57° 74° (ENE) 05:47:13 437.345
GONETS M04 25 Jun 05:40:00 05:47:37 32° 71° (ENE) 05:55:10
STARS 25 Jun 05:45:23 05:48:41 21° 265° (W) 05:52:01 437.465
AO-7 25 Jun 05:46:50 05:55:08 68° 292° (WNW) 06:03:24 29.400- 29.500
BEESAT 2 25 Jun 05:56:35 05:59:00 15° 314° (NW) 06:01:25 435.950
NOAA 15 25 Jun 06:02:54 06:04:34 11° 90° (E) 06:06:12 137.62
AIST 2 25 Jun 06:03:19 06:07:06 37° 115° (ESE) 06:10:56 435.215
HORYU 2 25 Jun 06:18:34 06:23:04 90° 318° (NW) 06:27:34 437.375
Cosmos 2499 25 Jun 06:24:11 06:32:25 41° 74° (ENE) 06:40:13 435.465 / 435.565
Cubesat XI-IV 25 Jun 06:24:35 06:27:23 14° 91° (E) 06:30:09 437.490
LilacSat-2 25 Jun 06:27:37 06:27:45 10° 91° (E) 06:27:54 437.200
AO-85 25 Jun 06:37:09 06:39:23 13° 40° (NE) 06:41:32 145.980
BRITE-PL 25 Jun 06:40:32 06:43:52 23° 95° (E) 06:47:11 437.365/2234.400
AIST 1 25 Jun 06:45:10 06:46:42 12° 275° (W) 06:48:14
CUTE-I 25 Jun 06:58:41 07:03:26 31° 96° (E) 07:08:08 437.470
STRAND 1 25 Jun 07:00:27 07:04:56 31° 68° (ENE) 07:09:26 437.568
CUBESAT XI-V 25 Jun 07:18:02 07:20:18 13° 269° (W) 07:22:37 437.345
DOVE 4 25 Jun 07:18:13 07:19:50 12° 92° (E) 07:21:27 437.250
NOAA 18 25 Jun 07:24:54 07:30:24 59° 102° (ESE) 07:35:52 137.9125
GOMX 1 25 Jun 07:33:50 07:37:47 40° 99° (E) 07:41:50 467.674
GONETS M04 25 Jun 07:36:21 07:44:42 53° 270° (W) 07:53:05
NOAA 15 25 Jun 07:39:38 07:44:53 78° 286° (WNW) 07:50:07 137.62
AO-7 25 Jun 07:42:11 07:46:22 15° 312° (NW) 07:50:34 29.400- 29.500
AIST 2 25 Jun 07:42:35 07:45:42 21° 312° (NW) 07:48:52 435.215
LilacSat-2 25 Jun 07:58:34 08:02:20 51° 285° (WNW) 08:06:06 437.200
DANDE 25 Jun 07:59:40 08:06:09 26° 85° (E) 08:12:31 436.750
Cubesat XI-IV 25 Jun 08:02:32 08:07:54 68° 286° (WNW) 08:13:14 437.490
PHONESAT 2.4 25 Jun 08:11:33 08:13:43 18° 149° (SSE) 08:15:54 2401.200-2431.200
CUSAT 1 25 Jun 08:12:09 08:19:57 58° 95° (E) 08:26:53 437.405
AO-85 25 Jun 08:16:03 08:20:33 81° 240° (WSW) 08:24:38 145.980
Cosmos 2499 25 Jun 08:17:24 08:25:29 42° 273° (W) 08:33:10 435.465 / 435.565
BRITE-PL 25 Jun 08:18:56 08:22:20 25° 291° (WNW) 08:25:42 437.365/2234.400
CUTE-I 25 Jun 08:38:42 08:43:24 32° 292° (WNW) 08:48:06 437.470
STRAND 1 25 Jun 08:39:36 08:44:02 29° 264° (W) 08:48:31 437.568
CINEMA 3 25 Jun 08:40:28 08:44:26 30° 97° (E) 08:48:32 145.822/145.860
PRISM 25 Jun 08:49:08 08:53:14 60° 75° (ENE) 08:57:21 437.425
AAUSAT CUBESAT 2 25 Jun 08:52:25 08:54:13 12° 91° (E) 08:56:01 437.432
DOVE 4 25 Jun 08:53:37 08:57:47 54° 285° (WNW) 09:02:08 437.250
CANX-2 25 Jun 09:03:48 09:08:01 53° 100° (E) 09:12:11 2200.000
CUBEBUG 2 25 Jun 09:04:34 09:07:33 17° 93° (E) 09:10:33 437.445
NOAA 18 25 Jun 09:06:48 09:10:32 19° 298° (WNW) 09:14:17 137.9125
GOMX 1 25 Jun 09:13:08 09:15:36 15° 293° (WNW) 09:18:04 467.674
HO-68 25 Jun 09:18:05 09:25:16 64° 103° (ESE) 09:32:23 435.675
COMPASS 1 25 Jun 09:20:55 09:24:46 35° 97° (E) 09:28:36 437.405
CUTE 1.7 + AOD 2 25 Jun 09:24:31 09:28:50 82° 103° (ESE) 09:33:06 437.475
SEEDS 25 Jun 09:35:36 09:39:52 78° 102° (ESE) 09:44:05 437.485
M-CUBED/EXP-1 PRIME 25 Jun 09:39:46 09:42:55 23° 102° (ESE) 09:46:13 437.505
DANDE 25 Jun 09:40:03 09:48:22 70° 281° (W) 09:56:29 436.750
PHONESAT 2.4 25 Jun 09:46:59 09:50:03 78° 162° (SSE) 09:53:08 2401.200-2431.200
ZACube-1 25 Jun 09:47:25 09:50:56 22° 94° (E) 09:54:28 437.345
CUSAT 1 25 Jun 09:55:37 10:02:14 29° 288° (WNW) 10:08:13 437.405
UWE-3 25 Jun 09:59:02 10:03:25 45° 99° (E) 10:07:51 435.000/436.395/437.385
TIGRISAT 25 Jun 10:01:39 10:04:52 21° 67° (ENE) 10:08:07 435.000
Oscar 11 25 Jun 10:04:31 10:08:31 34° 97° (E) 10:12:29 145.826/435.025
UNISAT 6 25 Jun 10:05:10 10:08:38 24° 69° (ENE) 10:12:10 437.425
FUNcube-1 25 Jun 10:06:42 10:10:47 33° 97° (E) 10:14:55 145.935
ISS 25 Jun 10:09:36 10:12:41 41° 136° (SE) 10:15:48 145.825
CINEMA 3 25 Jun 10:17:48 10:21:26 25° 290° (WNW) 10:25:11 145.822/145.860
AAUSAT CUBESAT 2 25 Jun 10:25:57 10:29:58 48° 286° (WNW) 10:33:57 437.432
PRISM 25 Jun 10:28:34 10:28:53 10° 269° (W) 10:29:12 437.425
AUBIESAT-1 25 Jun 10:37:36 10:41:28 83° 286° (WNW) 10:45:37 437.475
CUBEBUG 2 25 Jun 10:39:59 10:44:19 44° 287° (WNW) 10:48:46 437.445
CANX-2 25 Jun 10:41:23 10:43:23 13° 295° (WNW) 10:45:24 2200.000
ANTELSAT 25 Jun 10:44:13 10:48:26 67° 75° (ENE) 10:52:47 437.575/2403.000
COMPASS 1 25 Jun 10:57:11 11:00:03 18° 293° (WNW) 11:02:55 437.405
Cosmos 2491 25 Jun 11:02:52 11:07:27 15° 61° (ENE) 11:12:01 435.465 / 435.565
HO-68 25 Jun 11:06:51 11:12:23 25° 300° (WNW) 11:17:55 435.675
NANOSAT C BR1 25 Jun 11:07:10 11:10:03 18° 67° (ENE) 11:12:57 145.865
QB50P1 25 Jun 11:07:47 11:10:49 20° 67° (ENE) 11:13:51 145.935-145.965
DELFI C3 25 Jun 11:09:05 11:13:06 89° 102° (ESE) 11:17:05 145.870
POPSAT HIP 1 25 Jun 11:10:31 11:13:38 21° 68° (ENE) 11:16:46 437.405
M-CUBED/EXP-1 PRIME 25 Jun 11:14:15 11:17:22 25° 294° (WNW) 11:20:40 437.505
PCSat 25 Jun 11:19:47 11:22:55 15° 44° (NE) 11:26:02 145.827
QB50P2 25 Jun 11:21:16 11:24:53 29° 70° (ENE) 11:28:32 145.880/145.840
JAS-2 25 Jun 11:22:17 11:26:13 15° 58° (ENE) 11:30:00 435.910
ZACube-1 25 Jun 11:23:11 11:27:14 33° 289° (WNW) 11:31:19 437.345
PHONESAT 2.4 25 Jun 11:23:42 11:26:45 60° 0° (N) 11:29:49 2401.200-2431.200
POLYITAN 1 25 Jun 11:23:51 11:27:29 30° 70° (ENE) 11:31:09 437.675
DANDE 25 Jun 11:28:06 11:32:26 15° 298° (WNW) 11:36:41 436.750
DUCHIFAT 1 25 Jun 11:28:45 11:32:21 29° 71° (ENE) 11:36:00 145.980
HUMSAT D 25 Jun 11:32:52 11:37:12 74° 100° (E) 11:41:30 437.325/437.525
UWE-3 25 Jun 11:36:31 11:39:31 18° 294° (WNW) 11:42:33 435.000/436.395/437.385
TIGRISAT 25 Jun 11:37:35 11:41:21 31° 263° (W) 11:45:13 435.000
Oscar 11 25 Jun 11:41:13 11:44:24 20° 293° (WNW) 11:47:33 145.826/435.025
UNISAT 6 25 Jun 11:41:39 11:45:15 26° 264° (W) 11:48:55 437.425
FUNcube-1 25 Jun 11:43:20 11:46:49 22° 292° (WNW) 11:50:20 145.935
ISS 25 Jun 11:46:32 11:49:14 23° 333° (NNW) 11:51:57 145.825
ESTCUBE 1 25 Jun 12:00:06 12:03:45 24° 95° (E) 12:07:24 437.505/2401.250
BEESAT 3 25 Jun 12:06:20 12:09:15 19° 48° (NE) 12:12:08 437.485
AISAT 25 Jun 12:19:35 12:23:12 25° 96° (E) 12:26:49 437.250
RS-15 25 Jun 12:28:28 12:39:19 55° 111° (ESE) 12:50:44 29.354- 29.394
Oscar 19 25 Jun 12:33:47 12:36:21 14° 61° (ENE) 12:38:55 437.125/150
BEESAT 2 25 Jun 12:36:37 12:39:47 22° 49° (NE) 12:42:56 435.950
BUGSAT 1 25 Jun 12:39:45 12:43:47 89° 257° (WSW) 12:47:48 437.445
UKube-1 25 Jun 12:40:00 12:43:31 24° 96° (E) 12:47:01 .
NANOSAT C BR1 25 Jun 12:41:43 12:45:31 34° 262° (W) 12:49:21 145.865
QB50P1 25 Jun 12:42:37 12:46:21 32° 263° (W) 12:50:08 145.935-145.965
YUBILEINY 25 Jun 12:43:30 12:50:36 29° 83° (E) 12:57:44 435.215
POPSAT HIP 1 25 Jun 12:45:33 12:49:14 30° 263° (W) 12:52:56 437.405
50 SAT 25 Jun 12:47:21 12:51:01 56° 101° (E) 12:54:37 437.505
SPROUT 25 Jun 12:48:50 12:52:07 21° 95° (E) 12:55:23 437.525
DX 1 25 Jun 12:52:26 12:56:34 42° 99° (E) 13:00:40 434.975-435.025
Cosmos 2491 25 Jun 12:57:01 13:05:47 80° 82° (E) 13:14:30 435.465 / 435.565
QB50P2 25 Jun 12:57:30 13:00:41 21° 265° (W) 13:03:54 145.880/145.840
POLYITAN 1 25 Jun 13:00:11 13:03:19 20° 266° (W) 13:06:28 437.675
PHONESAT 2.4 25 Jun 13:00:23 13:03:27 74° 199° (SSW) 13:06:32 2401.200-2431.200
PCSat 25 Jun 13:01:35 13:07:03 88° 241° (WSW) 13:12:28 145.827
JAS-2 25 Jun 13:02:28 13:10:15 77° 74° (ENE) 13:17:28 435.910
DUCHIFAT 1 25 Jun 13:04:57 13:08:04 20° 265° (W) 13:11:12 145.980
VELOX 1 25 Jun 13:14:57 13:19:21 80° 286° (WNW) 13:23:44 145.980
CUBEBUG 1 25 Jun 13:16:42 13:21:00 68° 285° (WNW) 13:25:16 437.445
O/OREOS (USA 219) 25 Jun 13:26:23 13:30:29 34° 63° (ENE) 13:34:35 437.305
ESTCUBE 1 25 Jun 13:36:38 13:40:32 29° 290° (WNW) 13:44:24 437.505/2401.250
BEESAT 3 25 Jun 13:43:23 13:47:03 37° 245° (WSW) 13:50:41 437.485
AISAT 25 Jun 13:55:55 13:59:36 27° 291° (WNW) 14:03:18 437.250
Gurwin Techsat 1B 25 Jun 13:58:11 14:03:03 38° 69° (ENE) 14:07:56 435.225
Oscar 19 25 Jun 14:09:54 14:15:03 72° 258° (WSW) 14:20:12 437.125/150
Cosmos 2504 25 Jun 14:12:45 14:19:38 33° 84° (E) 14:26:54 435.465 / 435.565
BEESAT 2 25 Jun 14:14:05 14:17:39 32° 246° (WSW) 14:21:12 435.950
UKube-1 25 Jun 14:15:53 14:19:30 27° 291° (WNW) 14:23:07 .
TISAT 1 25 Jun 14:21:52 14:26:02 61° 101° (E) 14:30:12 437.305
SPROUT 25 Jun 14:24:20 14:28:04 30° 290° (WNW) 14:31:48 437.525
ITAMSAT 1 25 Jun 14:25:34 14:29:45 25° 66° (ENE) 14:33:58 435.822/435.867
AIST 2 25 Jun 14:26:10 14:29:12 19° 47° (NE) 14:32:13 435.215
DX 1 25 Jun 14:29:41 14:32:24 16° 295° (WNW) 14:35:06 434.975-435.025
PHONESAT 2.4 25 Jun 14:37:41 14:39:46 17° 212° (SSW) 14:41:50 2401.200-2431.200
YUBILEINY 25 Jun 14:38:20 14:46:49 57° 282° (WNW) 14:55:25 435.215
RS-15 25 Jun 14:41:04 14:52:00 47° 314° (NW) 15:03:33 29.354- 29.394
SWISSCUBE 25 Jun 14:42:25 14:45:58 20° 94° (E) 14:49:30 437.505
JAS-2 25 Jun 14:50:20 14:55:41 20° 268° (W) 15:00:51 435.910
AO-7 25 Jun 14:52:55 15:00:02 33° 59° (ENE) 15:07:10 29.400- 29.500
Cosmos 2491 25 Jun 14:55:52 15:01:30 20° 281° (W) 15:07:10 435.465 / 435.565
ISS 25 Jun 15:03:15 15:04:19 11° 13° (NNE) 15:05:23 145.825
ITUPSAT 1 25 Jun 15:06:12 15:10:29 32° 97° (E) 15:14:45 437.325
O/OREOS (USA 219) 25 Jun 15:06:21 15:09:38 20° 259° (WSW) 15:12:54 437.305
BEESAT 25 Jun 15:07:31 15:11:52 33° 97° (E) 15:16:10 436.000
Gurwin Techsat 1B 25 Jun 15:38:43 15:43:03 25° 265° (W) 15:47:24 435.225
TISAT 1 25 Jun 15:59:52 16:01:10 11° 296° (WNW) 16:02:28 437.305
AIST 2 25 Jun 16:03:55 16:07:51 42° 244° (WSW) 16:11:46 435.215
ITAMSAT 1 25 Jun 16:04:10 16:09:00 38° 262° (W) 16:13:51 435.822/435.867
Cosmos 2504 25 Jun 16:04:57 16:12:36 49° 284° (WNW) 16:20:52 435.465 / 435.565
MOZHAYETS 4 25 Jun 16:18:35 16:21:59 20° 93° (E) 16:25:23
SWISSCUBE 25 Jun 16:19:25 16:23:52 39° 290° (WNW) 16:28:18 437.505
ISS 25 Jun 16:38:26 16:41:31 36° 32° (NNE) 16:44:34 145.825
ITUPSAT 1 25 Jun 16:44:13 16:48:10 26° 293° (WNW) 16:52:06 437.325
AO-7 25 Jun 16:44:14 16:52:21 57° 257° (WSW) 17:00:35 29.400- 29.500
BEESAT 25 Jun 16:45:37 16:49:28 24° 293° (WNW) 16:53:18 436.000
KKS-1 25 Jun 16:52:59 16:57:20 51° 100° (E) 17:01:39 437.445
SO-50 25 Jun 16:57:35 17:02:20 53° 117° (ESE) 17:07:05 436.795
RS-15 25 Jun 17:00:30 17:08:46 20° 346° (NNW) 17:17:15 29.354- 29.394
NOAA 18 25 Jun 17:13:07 17:15:35 13° 59° (ENE) 17:18:04 137.9125
HORYU 2 25 Jun 17:15:02 17:19:26 71° 74° (ENE) 17:23:51 437.375
NOAA 15 25 Jun 17:20:48 17:24:21 19° 63° (ENE) 17:27:55 137.62
AIST 1 25 Jun 17:33:31 17:37:19 31° 91° (E) 17:41:08
STARS 25 Jun 17:34:35 17:39:00 75° 104° (ESE) 17:43:24 437.465
CUBESAT XI-V 25 Jun 17:37:14 17:39:59 15° 92° (E) 17:42:41 437.345
Cubesat XI-IV 25 Jun 17:44:54 17:48:55 22° 64° (ENE) 17:52:56 437.490
BRITE-PL 25 Jun 17:49:27 17:53:52 29° 70° (ENE) 17:58:01 437.365/2234.400
MOZHAYETS 4 25 Jun 17:54:58 17:59:15 37° 289° (WNW) 18:03:30
ISS 25 Jun 18:15:13 18:17:47 22° 228° (SW) 18:20:23 145.825
CUTE-I 25 Jun 18:19:06 18:24:09 45° 71° (ENE) 18:29:15 437.470
DOVE 4 25 Jun 18:23:50 18:24:58 11° 65° (ENE) 18:26:05 437.250
JUGNU 25 Jun 18:30:14 18:32:04 11° 177° (S) 18:33:54 437.505
KKS-1 25 Jun 18:31:00 18:33:27 15° 296° (WNW) 18:35:54 437.445
LilacSat-2 25 Jun 18:38:56 18:42:38 60° 76° (ENE) 18:46:24 437.200
SO-50 25 Jun 18:39:23 18:43:08 21° 314° (NW) 18:46:51 436.795
GONETS M04 25 Jun 18:39:35 18:47:23 38° 86° (E) 18:55:09
GOMX 1 25 Jun 18:40:33 18:44:59 40° 73° (ENE) 18:49:10 467.674
NOAA 18 25 Jun 18:50:01 18:55:29 84° 256° (WSW) 19:01:00 137.9125
CUSAT 1 25 Jun 18:52:09 18:54:56 18° 67° (ENE) 18:57:17 437.405
NOAA 15 25 Jun 18:58:29 19:03:40 55° 259° (W) 19:08:52 137.62
Cosmos 2499 25 Jun 18:58:58 19:05:59 33° 84° (E) 19:13:23 435.465 / 435.565
AIST 1 25 Jun 19:11:47 19:14:57 20° 286° (WNW) 19:18:07
CUBESAT XI-V 25 Jun 19:13:09 19:17:36 47° 287° (WNW) 19:22:00 437.345
STARS 25 Jun 19:14:12 19:14:43 10° 298° (WNW) 19:15:14 437.465
STRAND 1 25 Jun 19:14:34 19:15:57 11° 90° (E) 19:17:19 437.568
RS-15 25 Jun 19:18:17 19:27:36 24° 23° (NNE) 19:36:58 29.354- 29.394
Cubesat XI-IV 25 Jun 19:23:31 19:28:38 46° 261° (W) 19:33:47 437.490
BRITE-PL 25 Jun 19:27:41 19:32:15 30° 263° (W) 19:36:33 437.365/2234.400
CINEMA 3 25 Jun 19:41:47 19:44:57 21° 69° (ENE) 19:48:07 145.822/145.860
HO-68 25 Jun 19:45:18 19:51:54 42° 66° (ENE) 19:58:32 435.675
CANX-2 25 Jun 19:55:18 19:59:06 32° 71° (ENE) 20:02:55 2200.000
DOVE 4 25 Jun 19:57:47 20:02:12 63° 259° (W) 20:06:25 437.250
CUTE-I 25 Jun 20:00:22 20:04:23 21° 266° (W) 20:08:25 437.470
CUBEBUG 2 25 Jun 20:03:37 20:04:44 11° 63° (ENE) 20:05:52 437.445
COMPASS 1 25 Jun 20:10:51 20:14:00 21° 68° (ENE) 20:17:11 437.405
CUTE 1.7 + AOD 2 25 Jun 20:15:37 20:19:42 47° 74° (ENE) 20:23:50 437.475
GOMX 1 25 Jun 20:19:57 20:23:10 18° 266° (W) 20:26:17 467.674
JUGNU 25 Jun 20:19:58 20:20:09 10° 188° (S) 20:20:19 437.505
DANDE 25 Jun 20:24:37 20:29:58 85° 264° (W) 20:33:53 436.750
SEEDS 25 Jun 20:25:47 20:29:48 43° 73° (ENE) 20:33:52 437.485
M-CUBED/EXP-1 PRIME 25 Jun 20:26:19 20:28:47 20° 65° (ENE) 20:31:13 437.505
CUSAT 1 25 Jun 20:34:19 20:36:51 17° 275° (W) 20:39:02 437.405
GONETS M04 25 Jun 20:35:49 20:44:00 44° 285° (WNW) 20:52:13
ZACube-1 25 Jun 20:43:19 20:45:31 14° 65° (ENE) 20:47:45 437.345
STRAND 1 25 Jun 20:50:30 20:55:40 79° 285° (WNW) 21:00:48 437.568
Cosmos 2499 25 Jun 20:50:47 20:58:40 51° 284° (WNW) 21:07:07 435.465 / 435.565
UWE-3 25 Jun 20:55:15 20:58:49 28° 70° (ENE) 21:02:28 435.000/436.395/437.385
Oscar 11 25 Jun 20:58:20 21:01:45 23° 68° (ENE) 21:05:12 145.826/435.025
FUNcube-1 25 Jun 21:01:40 21:04:48 21° 68° (ENE) 21:08:00 145.935
AAUSAT CUBESAT 2 25 Jun 21:14:14 21:18:25 90° 23° (NNE) 21:22:38 437.432
CINEMA 3 25 Jun 21:18:24 21:21:58 27° 264° (W) 21:25:32 145.822/145.860
AUBIESAT-1 25 Jun 21:23:17 21:26:36 79° 252° (WSW) 21:29:55 437.475
SRMSAT 25 Jun 21:26:41 21:28:30 11° 181° (S) 21:30:19 437.500
RS-15 25 Jun 21:31:10 21:43:25 62° 52° (NE) 21:55:30 29.354- 29.394
CANX-2 25 Jun 21:31:49 21:34:59 20° 266° (W) 21:38:10 2200.000
HO-68 25 Jun 21:33:11 21:39:36 36° 262° (W) 21:46:07 435.675
CUBEBUG 2 25 Jun 21:36:43 21:40:47 60° 259° (W) 21:44:58 437.445
COMPASS 1 25 Jun 21:45:39 21:49:22 30° 264° (W) 21:53:07 437.405
DELFI C3 25 Jun 21:53:30 21:57:17 41° 73° (ENE) 22:01:06 145.870
CUTE 1.7 + AOD 2 25 Jun 21:53:40 21:55:48 13° 269° (W) 21:57:56 437.475
M-CUBED/EXP-1 PRIME 25 Jun 22:00:56 22:03:18 18° 259° (W) 22:05:38 437.505
SEEDS 25 Jun 22:03:23 22:05:43 14° 268° (W) 22:08:04 437.485
PRISM 25 Jun 22:07:05 22:11:10 68° 286° (WNW) 22:15:11 437.425
ZACube-1 25 Jun 22:17:22 22:21:22 46° 261° (W) 22:25:29 437.345
HUMSAT D 25 Jun 22:22:46 22:26:39 41° 73° (ENE) 22:30:37 437.325/437.525
AO-85 25 Jun 22:27:37 22:32:51 50° 116° (ESE) 22:37:59 145.980
UWE-3 25 Jun 22:32:08 22:35:17 21° 266° (W) 22:38:30 435.000/436.395/437.385
Oscar 11 25 Jun 22:33:59 22:37:44 28° 264° (W) 22:41:31 145.826/435.025
FUNcube-1 25 Jun 22:37:13 22:40:52 29° 264° (W) 22:44:35 145.935
ANTELSAT 25 Jun 22:38:01 22:40:59 17° 93° (E) 22:43:58 437.575/2403.000
YUBILEINY 25 Jun 22:56:26 22:59:58 13° 59° (ENE) 23:03:29 435.215
ESTCUBE 1 25 Jun 22:58:44 23:02:03 20° 67° (ENE) 23:05:22 437.505/2401.250
AISAT 25 Jun 23:16:09 23:19:22 20° 67° (ENE) 23:22:34 437.250
50 SAT 25 Jun 23:24:30 23:27:20 21° 69° (ENE) 23:30:12 437.505
TIGRISAT 25 Jun 23:29:19 23:33:54 57° 100° (E) 23:38:30 435.000
DELFI C3 25 Jun 23:30:14 23:32:19 14° 268° (W) 23:34:25 145.870
UNISAT 6 25 Jun 23:33:20 23:37:57 67° 101° (E) 23:42:37 437.425
UKube-1 25 Jun 23:33:51 23:36:50 19° 66° (ENE) 23:39:49 .
SPROUT 25 Jun 23:42:12 23:44:33 15° 65° (ENE) 23:46:54 437.525
RS-15 25 Jun 23:44:21 23:55:24 41° 254° (WSW) 00:06:19 29.354- 29.394
DX 1 25 Jun 23:46:44 23:50:35 31° 70° (ENE) 23:54:26 434.975-435.025
HUMSAT D 26 Jun 00:00:09 00:02:29 15° 268° (W) 00:04:50 437.325/437.525
Cosmos 2491 26 Jun 00:03:54 00:09:09 18° 78° (ENE) 00:14:22 435.465 / 435.565
AO-85 26 Jun 00:09:07 00:13:36 26° 312° (NW) 00:17:57 145.980
Cosmos 2504 26 Jun 00:09:20 00:11:53 11° 57° (ENE) 00:14:24 435.465 / 435.565
VELOX 1 26 Jun 00:10:37 00:15:01 76° 75° (ENE) 00:19:26 145.980
CUBEBUG 1 26 Jun 00:10:56 00:15:18 82° 76° (ENE) 00:19:40 437.445
ANTELSAT 26 Jun 00:13:27 00:17:52 46° 287° (WNW) 00:22:20 437.575/2403.000
BUGSAT 1 26 Jun 00:24:09 00:26:19 14° 93° (E) 00:28:28 437.445
NANOSAT C BR1 26 Jun 00:26:58 00:30:57 38° 98° (E) 00:34:54 145.865
QB50P1 26 Jun 00:28:04 00:32:07 41° 99° (E) 00:36:08 145.935-145.965
POPSAT HIP 1 26 Jun 00:30:57 00:35:01 44° 99° (E) 00:39:06 437.405
ESTCUBE 1 26 Jun 00:34:23 00:38:35 37° 262° (W) 00:42:48 437.505/2401.250
QB50P2 26 Jun 00:42:20 00:46:35 66° 102° (ESE) 00:50:49 145.880/145.840
POLYITAN 1 26 Jun 00:44:57 00:49:13 68° 102° (ESE) 00:53:28 437.675
DUCHIFAT 1 26 Jun 00:48:55 00:53:08 66° 102° (ESE) 00:57:20 145.980
YUBILEINY 26 Jun 00:49:43 00:58:33 70° 81° (E) 01:07:21 435.215
AISAT 26 Jun 00:51:33 00:55:35 35° 262° (W) 00:59:38 437.250
50 SAT 26 Jun 00:57:57 01:00:55 22° 264° (W) 01:03:54 437.505
TIGRISAT 26 Jun 01:07:35 01:10:06 15° 295° (WNW) 01:12:38 435.000
UKube-1 26 Jun 01:08:36 01:12:35 37° 262° (W) 01:16:36 .
UNISAT 6 26 Jun 01:12:09 01:14:06 13° 297° (WNW) 01:16:04 437.425
TISAT 1 26 Jun 01:12:16 01:16:06 37° 71° (ENE) 01:19:56 437.305
SPROUT 26 Jun 01:16:01 01:20:06 46° 261° (W) 01:24:12 437.525
